Date String (YYYY-MM-DD hh:mm:ss) UTC,Instrument flags,Ambient pressure (hPa),Sample flow (lpm),Bypass flow (lpm),Sample temperature (°C),Ambient temperature (°C),ASC tube jacket temperature (°C),LED temperature (°C),Box temperature (°C),Sample RH (%),Span deviation,Mass concentration (μg/m³),Mass concentration (μg/m³),Mass concentration (μg/m³)
DateTimeUTC,F1_M11,P_M11,Q1_M11,Q2_M11,T1_M11,T2_M11,T3_M11,T4_M11,T5_M11,U1_M11,ZSPAN_M11,X0_M11,X2_M11,X1_M11
2022-02-27 23:00:00,,0830.1,4.99,0.00,28.1,27.4,00.0,37.0,30.0,08.2,0005.1,0012.18,0007.65,0007.14
2022-02-27 23:01:00,,0830.1,5.01,0.00,28.1,27.4,00.0,37.0,29.9,08.1,0004.8,0012.23,0007.67,0007.15
2022-02-27 23:02:00,,0830.1,4.99,0.00,28.1,27.4,00.0,37.0,29.9,08.0,0005.1,0012.27,0007.70,0007.17
2022-02-27 23:03:00,,0830.1,5.00,0.00,28.1,27.4,00.0,37.0,30.0,08.0,0005.3,0012.20,0007.66,0007.17
2022-02-27 23:04:00,,0830.1,4.99,0.00,28.1,27.4,00.0,37.0,30.0,08.4,0005.1,0012.15,0007.64,0007.17
2022-02-27 23:05:00,,0830.1,5.02,0.00,28.1,27.4,00.0,37.0,30.0,08.1,0005.2,0011.96,0007.63,0007.18
2022-02-27 23:06:00,,0830.1,4.99,0.00,28.2,27.4,00.0,37.0,30.0,07.7,0003.9,0011.82,0007.61,0007.18
2022-02-27 23:07:00,,0830.1,5.00,0.00,28.2,27.5,00.0,37.0,30.1,07.8,0004.7,0011.70,0007.62,0007.20
2022-02-27 23:08:00,,0830.1,5.01,0.00,28.2,27.5,00.0,37.0,30.1,07.9,0005.0,0010.97,0007.61,0007.21
2022-02-27 23:09:00,,0830.1,5.00,0.00,28.2,27.5,00.0,37.0,30.1,08.1,0004.8,0011.08,0007.59,0007.21
2022-02-27 23:10:00,,0830.1,4.99,0.00,28.2,27.5,00.0,37.1,30.1,07.8,0002.1,0011.08,0007.59,0007.22
2022-02-27 23:11:00,,0830.1,5.00,0.00,28.2,27.5,00.0,37.1,30.1,08.0,0000.0,0011.01,0007.56,0007.22
2022-02-27 23:12:00,,0830.1,5.00,0.00,28.3,27.5,00.0,37.1,30.1,08.1,0000.0,0011.04,0007.54,0007.22
2022-02-27 23:13:00,,0830.1,5.00,0.00,28.3,27.6,00.0,37.1,30.1,07.8,0001.0,0011.11,0007.55,0007.24
2022-02-27 23:14:00,,0830.1,4.99,0.00,28.3,27.6,00.0,37.1,30.1,07.7,0003.8,0011.17,0007.57,0007.28
2022-02-27 23:15:00,,0830.1,4.99,0.00,28.3,27.6,00.0,37.1,30.2,07.6,0004.8,0011.46,0007.64,0007.30
2022-02-27 23:16:00,,0830.1,5.01,0.00,28.3,27.6,00.0,37.1,30.2,07.5,0004.8,0012.17,0007.68,0007.35
2022-02-27 23:17:00,,0830.1,5.00,0.00,28.3,27.6,00.0,37.1,30.2,07.4,0004.5,0012.20,0007.71,0007.37
2022-02-27 23:18:00,,0830.1,4.99,0.00,28.3,27.6,00.0,37.2,30.2,07.4,0004.1,0012.36,0007.75,0007.41
2022-02-27 23:19:00,,0830.1,5.02,0.00,28.3,27.6,00.0,37.2,30.2,07.7,0003.6,0012.32,0007.80,0007.44
2022-02-27 23:20:00,,0830.1,4.99,0.00,28.3,27.6,00.0,37.2,30.2,07.6,0000.0,0011.81,0007.87,0007.48
2022-02-27 23:21:00,,0830.1,5.01,0.00,28.4,27.6,00.0,37.2,30.2,07.6,0003.9,0011.97,0007.93,0007.52
2022-02-27 23:22:00,,0830.1,5.00,0.00,28.4,27.6,00.0,37.2,30.2,07.5,0004.5,0012.05,0007.95,0007.56
2022-02-27 23:23:00,,0830.1,4.99,0.00,28.4,27.6,00.0,37.2,30.2,07.6,0004.4,0012.07,0008.01,0007.60
2022-02-27 23:24:00,,0830.1,5.00,0.00,28.4,27.6,00.0,37.2,30.2,07.7,0003.3,0012.06,0008.06,0007.63
2022-02-27 23:25:00,,0830.0,4.99,0.00,28.4,27.7,00.0,37.2,30.2,07.5,0000.0,0012.58,0008.08,0007.62
2022-02-27 23:26:00,,0830.1,5.02,0.00,28.4,27.7,00.0,37.3,30.2,07.9,0000.0,0012.64,0008.08,0007.63
2022-02-27 23:27:00,,0830.1,5.00,0.00,28.4,27.7,00.0,37.3,30.2,07.8,0000.0,0011.97,0008.07,0007.61
2022-02-27 23:28:00,,0830.1,4.99,0.00,28.4,27.7,00.0,37.3,30.3,07.8,0002.4,0011.99,0008.06,0007.60
2022-02-27 23:29:00,,0830.1,5.02,0.00,28.4,27.7,00.0,37.3,30.3,07.8,0004.0,0011.89,0008.03,0007.56
2022-02-27 23:30:00,,0830.1,4.99,0.00,28.4,27.7,00.0,37.3,30.3,07.7,0003.8,0011.77,0008.01,0007.53
2022-02-27 23:31:00,,0830.1,4.99,0.00,28.4,27.7,00.0,37.3,30.3,07.8,0004.7,0011.78,0007.98,0007.50
2022-02-27 23:32:00,,0830.1,5.00,0.00,28.4,27.7,00.0,37.3,30.3,07.8,0004.0,0011.63,0007.92,0007.47
2022-02-27 23:33:00,,0830.1,5.01,0.00,28.4,27.7,00.0,37.3,30.3,07.9,0004.0,0011.83,0007.89,0007.42
2022-02-27 23:34:00,,0830.1,4.99,0.00,28.4,27.7,00.0,37.3,30.3,07.6,0004.5,0011.77,0007.83,0007.37
2022-02-27 23:35:00,,0830.1,4.99,0.00,28.4,27.8,00.0,37.4,30.3,07.7,0004.8,0011.65,0007.77,0007.32
2022-02-27 23:36:00,,0830.1,5.01,0.00,28.5,27.8,00.0,37.4,30.3,08.0,0005.0,0011.03,0007.70,0007.27
2022-02-27 23:37:00,,0830.1,5.00,0.00,28.5,27.8,00.0,37.4,30.3,08.0,0005.2,0010.88,0007.64,0007.23
2022-02-27 23:38:00,,0830.1,5.01,0.00,28.5,27.8,00.0,37.4,30.3,07.8,0005.4,0010.72,0007.61,0007.20
2022-02-27 23:39:00,,0830.0,4.99,0.00,28.5,27.8,00.0,37.4,30.3,07.8,0005.4,0010.67,0007.58,0007.17
2022-02-27 23:40:00,,0830.0,5.01,0.00,28.5,27.8,00.0,37.4,30.3,07.9,0005.3,0010.64,0007.56,0007.15
2022-02-27 23:41:00,,0830.1,5.00,0.00,28.5,27.8,00.0,37.4,30.3,08.0,0005.1,0010.61,0007.54,0007.13
2022-02-27 23:42:00,,0830.0,4.99,0.00,28.5,27.7,00.0,37.4,30.3,07.9,0005.1,0010.53,0007.52,0007.09
2022-02-27 23:43:00,,0830.0,5.01,0.00,28.5,27.8,00.0,37.4,30.3,07.8,0005.1,0010.69,0007.53,0007.07
2022-02-27 23:44:00,,0830.0,5.01,0.00,28.5,27.8,00.0,37.4,30.3,07.6,0005.3,0010.65,0007.50,0007.06
2022-02-27 23:45:00,,0830.0,5.00,0.00,28.5,27.8,00.0,37.4,30.3,07.7,0005.0,0010.61,0007.47,0007.03
2022-02-27 23:46:00,,0830.0,5.00,0.00,28.5,27.8,00.0,37.4,30.4,08.0,0004.8,0010.62,0007.47,0007.01
2022-02-27 23:47:00,,0830.1,5.00,0.00,28.5,27.8,00.0,37.4,30.4,07.8,0004.5,0010.61,0007.47,0007.00
2022-02-27 23:48:00,,0830.1,5.02,0.00,28.5,27.9,00.0,37.4,30.4,07.7,0003.8,0010.73,0007.47,0006.99
2022-02-27 23:49:00,,0830.0,5.00,0.00,28.5,27.8,00.0,37.4,30.4,07.6,0003.9,0010.87,0007.44,0006.98
2022-02-27 23:50:00,,0830.1,4.99,0.00,28.6,27.8,00.0,37.5,30.4,07.5,0004.4,0010.94,0007.45,0006.98
2022-02-27 23:51:00,,0830.0,4.99,0.00,28.6,27.8,00.0,37.5,30.4,07.5,0004.8,0011.06,0007.50,0006.99
2022-02-27 23:52:00,,0830.0,5.00,0.00,28.6,27.8,00.0,37.5,30.3,07.5,0005.0,0011.06,0007.49,0006.99
2022-02-27 23:53:00,,0830.1,5.00,0.00,28.5,27.8,00.0,37.5,30.3,07.5,0005.0,0011.00,0007.49,0007.00
2022-02-27 23:54:00,,0830.1,5.01,0.00,28.5,27.8,00.0,37.5,30.3,07.6,0005.4,0010.84,0007.49,0007.01
2022-02-27 23:55:00,,0830.0,4.99,0.00,28.6,27.8,00.0,37.5,30.3,07.6,0005.2,0010.62,0007.49,0007.00
2022-02-27 23:56:00,,0830.0,5.00,0.00,28.6,27.8,00.0,37.5,30.3,07.6,0004.8,0010.64,0007.50,0007.00
2022-02-27 23:57:00,,0830.1,5.01,0.00,28.6,27.8,00.0,37.5,30.4,07.6,0004.2,0010.56,0007.47,0006.99
2022-02-27 23:58:00,,0830.1,4.99,0.00,28.6,27.8,00.0,37.5,30.4,07.5,0004.2,0010.49,0007.43,0006.97
2022-02-27 23:59:00,,0830.0,4.99,0.00,28.6,27.8,00.0,37.5,30.4,07.5,0004.2,0010.42,0007.41,0006.96
